Powrót do katalogu

STARLINK-37034

AktywnyŁącznośćVLEO
NORAD 68171·PAYLOAD·🇺🇸 United States

Wystrzelony Mar 14, 2026 z Vandenberg Space Force Base

Loading…

Następne Przeloty (najbliższe 24 godziny)

TLE

ŚwieżeSource: CelesTrak SupGP

Epoka: Sep 15, 2026, 03:45 UTC

1 68171C 26050E   26258.15673611 -.00008174  00000+0 -24137-3 0  2588
2 68171  53.1565 102.7501 0001077  77.0851  45.4403 15.34412576    18

Śledź STARLINK-37034 w czasie rzeczywistym z AllMySat

Download on the App Store